Time,TemperatureF,DewpointF,PressureIn,WindDirection,WindDirectionDegrees,WindSpeedMPH,WindSpeedGustMPH,Humidity,HourlyPrecipIn,Conditions,Clouds,dailyrainin,SoftwareType,DateUTC
2013-01-20 00:00:00,44.2,15.4,31.02,WSW,238,3.0,6.0,31,0.00,,,0.00,meteohub,2013-01-20 05:00:00,
2013-01-20 00:02:00,44.2,15.4,31.02,SW,220,3.0,6.0,31,0.00,,,0.00,meteohub,2013-01-20 05:02:00,
2013-01-20 00:04:00,44.2,15.4,31.02,SW,233,4.0,6.0,31,0.00,,,0.00,meteohub,2013-01-20 05:04:00,
2013-01-20 00:09:00,44.2,15.4,31.02,West,276,3.0,6.0,31,0.00,,,0.00,meteohub,2013-01-20 05:09:00,
2013-01-20 00:14:00,44.2,15.4,31.02,SW,227,2.0,5.0,31,0.00,,,0.00,meteohub,2013-01-20 05:14:00,
2013-01-20 00:19:00,44.4,16.3,31.02,SW,234,0.0,5.0,32,0.00,,,0.00,meteohub,2013-01-20 05:19:00,
2013-01-20 00:24:00,44.2,16.2,31.02,SW,235,4.0,5.0,32,0.00,,,0.00,meteohub,2013-01-20 05:24:00,
2013-01-20 00:30:00,44.2,16.2,31.02,WNW,288,3.0,5.0,32,0.00,,,0.00,meteohub,2013-01-20 05:30:00,
2013-01-20 00:35:00,44.2,16.2,31.02,SW,214,4.0,5.0,32,0.00,,,0.00,meteohub,2013-01-20 05:35:00,
2013-01-20 00:40:00,44.6,16.5,31.02,WSW,256,3.0,5.0,32,0.00,,,0.00,meteohub,2013-01-20 05:40:00,
2013-01-20 00:45:00,44.6,16.5,31.02,WNW,294,3.0,6.0,32,0.00,,,0.00,meteohub,2013-01-20 05:45:00,
2013-01-20 00:50:00,44.8,16.0,31.02,SW,222,6.0,6.0,31,0.00,,,0.00,meteohub,2013-01-20 05:50:00,
2013-01-20 00:55:00,44.8,16.0,31.02,West,259,2.0,6.0,31,0.00,,,0.00,meteohub,2013-01-20 05:55:00,
2013-01-20 01:00:00,44.8,16.0,31.02,SW,236,2.0,6.0,31,0.00,,,0.00,meteohub,2013-01-20 06:00:00,
2013-01-20 01:05:00,44.8,16.0,31.02,WSW,252,0.0,7.0,31,0.00,,,0.00,meteohub,2013-01-20 06:05:00,
2013-01-20 01:10:00,44.6,15.8,31.02,North,0,0.0,7.0,31,0.00,,,0.00,meteohub,2013-01-20 06:10:00,
2013-01-20 01:15:00,44.2,16.2,31.02,WSW,238,3.0,6.0,32,0.00,,,0.00,meteohub,2013-01-20 06:15:00,
2013-01-20 01:20:00,44.1,16.2,31.02,WSW,241,3.0,6.0,32,0.00,,,0.00,meteohub,2013-01-20 06:20:00,
2013-01-20 01:25:00,43.9,16.0,31.02,South,177,3.0,5.0,32,0.00,,,0.00,meteohub,2013-01-20 06:25:00,
2013-01-20 01:30:00,43.7,16.5,31.02,SW,216,4.0,5.0,33,0.00,,,0.00,meteohub,2013-01-20 06:30:00,
2013-01-20 01:35:00,43.9,16.7,31.02,WSW,250,3.0,6.0,33,0.00,,,0.00,meteohub,2013-01-20 06:35:00,
2013-01-20 01:41:00,44.1,16.7,31.02,SSW,211,0.0,6.0,33,0.00,,,0.00,meteohub,2013-01-20 06:41:00,
2013-01-20 01:46:00,44.1,16.7,31.02,WSW,248,4.0,6.0,33,0.00,,,0.00,meteohub,2013-01-20 06:46:00,
2013-01-20 01:51:00,44.1,16.7,31.02,NNE,27,0.0,6.0,33,0.00,,,0.00,meteohub,2013-01-20 06:51:00,
2013-01-20 01:56:00,43.9,16.7,31.02,WSW,249,4.0,5.0,33,0.00,,,0.00,meteohub,2013-01-20 06:56:00,
2013-01-20 02:01:00,43.7,16.5,31.02,SW,224,2.0,5.0,33,0.00,,,0.00,meteohub,2013-01-20 07:01:00,
2013-01-20 02:06:00,43.5,16.3,31.02,West,262,0.0,5.0,33,0.00,,,0.00,meteohub,2013-01-20 07:06:00,
2013-01-20 02:11:00,43.5,16.3,31.02,SSW,203,5.0,5.0,33,0.00,,,0.00,meteohub,2013-01-20 07:11:00,
2013-01-20 02:16:00,43.5,15.6,31.02,NW,308,3.0,6.0,32,0.00,,,0.00,meteohub,2013-01-20 07:16:00,
2013-01-20 02:21:00,43.5,15.6,31.02,SSW,196,6.0,6.0,32,0.00,,,0.00,meteohub,2013-01-20 07:21:00,
2013-01-20 02:26:00,43.7,15.1,31.02,WNW,290,4.0,6.0,31,0.00,,,0.00,meteohub,2013-01-20 07:26:00,
2013-01-20 02:32:00,43.7,15.1,31.02,WSW,244,2.0,6.0,31,0.00,,,0.00,meteohub,2013-01-20 07:32:00,
2013-01-20 02:37:00,43.7,15.1,31.02,WSW,243,3.0,6.0,31,0.00,,,0.00,meteohub,2013-01-20 07:37:00,
2013-01-20 02:42:00,43.7,15.1,31.02,WSW,249,6.0,6.0,31,0.00,,,0.00,meteohub,2013-01-20 07:42:00,
2013-01-20 02:47:00,43.7,15.1,31.02,WSW,245,4.0,6.0,31,0.00,,,0.00,meteohub,2013-01-20 07:47:00,
2013-01-20 02:52:00,43.7,15.1,31.02,SSW,209,3.0,6.0,31,0.00,,,0.00,meteohub,2013-01-20 07:52:00,
2013-01-20 02:57:00,43.7,15.1,31.02,SW,220,4.0,6.0,31,0.00,,,0.00,meteohub,2013-01-20 07:57:00,
2013-01-20 03:02:00,43.7,15.1,31.02,WNW,292,2.0,6.0,31,0.00,,,0.00,meteohub,2013-01-20 08:02:00,
2013-01-20 03:07:00,43.7,15.1,31.02,SW,218,3.0,10.0,31,0.00,,,0.00,meteohub,2013-01-20 08:07:00,
2013-01-20 03:12:00,43.7,15.1,31.02,WSW,258,3.0,10.0,31,0.00,,,0.00,meteohub,2013-01-20 08:12:00,
2013-01-20 03:17:00,43.7,15.1,31.02,SW,233,4.0,8.0,31,0.00,,,0.00,meteohub,2013-01-20 08:17:00,
2013-01-20 03:22:00,43.5,14.9,31.02,SW,217,2.0,8.0,31,-99.99,,,0.00,meteohub,2013-01-20 08:22:00,
2013-01-20 03:27:00,43.5,14.2,31.02,WSW,249,4.0,8.0,30,0.00,,,0.00,meteohub,2013-01-20 08:27:00,
2013-01-20 03:32:00,43.3,14.0,31.02,SSW,203,3.0,8.0,30,0.00,,,0.00,meteohub,2013-01-20 08:32:00,
2013-01-20 03:37:00,43.3,14.0,31.02,SSW,209,3.0,7.0,30,0.00,,,0.00,meteohub,2013-01-20 08:37:00,
2013-01-20 03:42:00,43.5,14.2,31.02,SSW,194,3.0,7.0,30,0.00,,,0.00,meteohub,2013-01-20 08:42:00,
2013-01-20 03:47:00,43.5,13.3,31.02,WSW,241,3.0,6.0,29,0.00,,,0.00,meteohub,2013-01-20 08:47:00,
2013-01-20 03:52:00,43.7,13.5,31.02,West,275,3.0,6.0,29,0.00,,,0.00,meteohub,2013-01-20 08:52:00,
2013-01-20 03:57:00,43.9,13.6,31.02,North,0,3.0,6.0,29,0.00,,,0.00,meteohub,2013-01-20 08:57:00,
2013-01-20 04:02:00,44.1,13.8,31.02,SW,224,5.0,6.0,29,0.00,,,0.00,meteohub,2013-01-20 09:02:00,
2013-01-20 04:07:00,44.1,13.8,31.02,WSW,241,0.0,7.0,29,0.00,,,0.00,meteohub,2013-01-20 09:07:00,
2013-01-20 04:12:00,44.1,13.8,31.02,SW,235,6.0,7.0,29,0.00,,,0.00,meteohub,2013-01-20 09:12:00,
2013-01-20 04:17:00,44.1,13.8,31.02,WSW,254,3.0,7.0,29,0.00,,,0.00,meteohub,2013-01-20 09:17:00,
2013-01-20 04:22:00,44.2,14.0,31.02,SSW,211,6.0,7.0,29,0.00,,,0.00,meteohub,2013-01-20 09:22:00,
2013-01-20 04:27:00,44.2,14.0,31.02,West,268,4.0,6.0,29,0.00,,,0.00,meteohub,2013-01-20 09:27:00,
2013-01-20 04:32:00,44.1,13.8,31.02,WSW,240,0.0,6.0,29,0.00,,,0.00,meteohub,2013-01-20 09:32:00,
2013-01-20 04:37:00,44.1,13.8,31.02,WNW,286,4.0,6.0,29,0.00,,,0.00,meteohub,2013-01-20 09:37:00,
2013-01-20 04:42:00,43.9,13.6,31.02,SW,231,2.0,6.0,29,0.00,,,0.00,meteohub,2013-01-20 09:42:00,
2013-01-20 04:47:00,43.7,13.5,31.02,South,175,6.0,8.0,29,0.00,,,0.00,meteohub,2013-01-20 09:47:00,
2013-01-20 04:52:00,43.7,13.5,31.02,NNW,328,0.0,8.0,29,0.00,,,0.00,meteohub,2013-01-20 09:52:00,
2013-01-20 04:57:00,43.7,13.5,31.02,SSE,161,4.0,8.0,29,0.00,,,0.00,meteohub,2013-01-20 09:57:00,
2013-01-20 05:02:00,43.7,13.5,31.02,SW,230,4.0,8.0,29,0.00,,,0.00,meteohub,2013-01-20 10:02:00,
2013-01-20 05:07:00,43.7,13.5,31.02,South,187,4.0,6.0,29,0.00,,,0.00,meteohub,2013-01-20 10:07:00,
2013-01-20 05:12:00,43.5,13.3,31.02,WSW,240,4.0,6.0,29,0.00,,,0.00,meteohub,2013-01-20 10:12:00,
2013-01-20 05:17:00,43.3,13.3,31.02,WNW,300,3.0,6.0,29,0.00,,,0.00,meteohub,2013-01-20 10:17:00,
2013-01-20 05:22:00,43.3,13.3,31.02,SW,224,5.0,6.0,29,0.00,,,0.00,meteohub,2013-01-20 10:22:00,
2013-01-20 05:28:00,43.2,13.1,31.02,WSW,251,3.0,6.0,29,0.00,,,0.00,meteohub,2013-01-20 10:28:00,
2013-01-20 05:33:00,43.2,13.1,31.02,WSW,245,3.0,5.0,29,0.00,,,0.00,meteohub,2013-01-20 10:33:00,
2013-01-20 05:38:00,43.0,12.9,31.02,SSW,194,2.0,5.0,29,0.00,,,0.00,meteohub,2013-01-20 10:38:00,
2013-01-20 05:43:00,42.8,12.7,31.02,West,263,4.0,6.0,29,0.00,,,0.00,meteohub,2013-01-20 10:43:00,
2013-01-20 05:48:00,42.8,12.7,31.02,SW,219,3.0,6.0,29,0.00,,,0.00,meteohub,2013-01-20 10:48:00,
2013-01-20 05:53:00,42.6,12.6,31.02,SW,216,2.0,6.0,29,0.00,,,0.00,meteohub,2013-01-20 10:53:00,
2013-01-20 05:58:00,42.4,12.4,31.02,West,280,5.0,6.0,29,0.00,,,0.00,meteohub,2013-01-20 10:58:00,
2013-01-20 06:03:00,42.3,12.2,31.02,ENE,63,2.0,5.0,29,0.00,,,0.00,meteohub,2013-01-20 11:03:00,
2013-01-20 06:08:00,42.1,12.9,31.02,WNW,290,3.0,5.0,30,0.00,,,0.00,meteohub,2013-01-20 11:08:00,
2013-01-20 06:13:00,41.9,12.7,31.02,SE,143,0.0,5.0,30,0.00,,,0.00,meteohub,2013-01-20 11:13:00,
2013-01-20 06:19:00,41.7,12.6,31.02,WNW,296,0.0,5.0,30,0.00,,,0.00,meteohub,2013-01-20 11:19:00,
2013-01-20 06:24:00,41.4,12.2,31.02,WSW,238,2.0,5.0,30,0.00,,,0.00,meteohub,2013-01-20 11:24:00,
2013-01-20 06:29:00,41.2,12.0,31.02,SW,214,0.0,4.0,30,0.00,,,0.00,meteohub,2013-01-20 11:29:00,
2013-01-20 06:34:00,40.8,12.6,31.02,SSW,207,0.0,4.0,31,0.00,,,0.00,meteohub,2013-01-20 11:34:00,
2013-01-20 06:39:00,40.6,13.1,31.02,SW,219,3.0,4.0,32,0.00,,,0.00,meteohub,2013-01-20 11:39:00,
2013-01-20 06:44:00,40.5,12.9,31.02,SSW,211,0.0,3.0,32,0.00,,,0.00,meteohub,2013-01-20 11:44:00,
2013-01-20 06:49:00,40.3,12.7,31.02,SW,233,0.0,3.0,32,0.00,,,0.00,meteohub,2013-01-20 11:49:00,
2013-01-20 06:54:00,40.1,12.6,31.02,WSW,248,0.0,3.0,32,0.00,,,0.00,meteohub,2013-01-20 11:54:00,
2013-01-20 06:59:00,39.9,13.1,31.02,SW,225,0.0,3.0,33,0.00,,,0.00,meteohub,2013-01-20 11:59:00,
2013-01-20 07:04:00,39.9,13.1,31.02,SSW,212,3.0,3.0,33,0.00,,,0.00,meteohub,2013-01-20 12:04:00,
2013-01-20 07:09:00,39.9,13.1,31.02,SW,233,0.0,5.0,33,0.00,,,0.00,meteohub,2013-01-20 12:09:00,
2013-01-20 07:15:00,39.9,13.1,31.02,WSW,240,2.0,5.0,33,0.00,,,0.00,meteohub,2013-01-20 12:15:00,
2013-01-20 07:20:00,39.9,13.1,31.02,WSW,252,3.0,5.0,33,0.00,,,0.00,meteohub,2013-01-20 12:20:00,
2013-01-20 07:25:00,39.9,13.1,31.02,WNW,290,0.0,5.0,33,0.00,,,0.00,meteohub,2013-01-20 12:25:00,
2013-01-20 07:30:00,39.9,13.1,31.02,SW,229,2.0,5.0,33,0.00,,,0.00,meteohub,2013-01-20 12:30:00,
2013-01-20 07:35:00,40.1,13.3,31.02,WSW,237,3.0,6.0,33,0.00,,,0.00,meteohub,2013-01-20 12:35:00,
2013-01-20 07:40:00,40.3,13.5,31.02,WSW,258,3.0,6.0,33,0.00,,,0.00,meteohub,2013-01-20 12:40:00,
2013-01-20 07:45:00,40.3,12.7,31.02,West,271,3.0,6.0,32,0.00,,,0.00,meteohub,2013-01-20 12:45:00,
2013-01-20 07:50:00,40.3,12.7,31.02,SW,221,3.0,6.0,32,0.00,,,0.00,meteohub,2013-01-20 12:50:00,
2013-01-20 07:55:00,40.5,12.9,31.02,WSW,249,4.0,6.0,32,0.00,,,0.00,meteohub,2013-01-20 12:55:00,
2013-01-20 08:00:00,40.6,13.1,31.02,SE,125,2.0,6.0,32,0.00,,,0.00,meteohub,2013-01-20 13:00:00,
2013-01-20 08:05:00,40.6,13.1,31.02,WSW,246,3.0,6.0,32,0.00,,,0.00,meteohub,2013-01-20 13:05:00,
2013-01-20 08:10:00,40.6,13.1,31.02,SW,233,0.0,6.0,32,0.00,,,0.00,meteohub,2013-01-20 13:10:00,
2013-01-20 08:16:00,41.0,12.7,31.02,SSW,197,0.0,6.0,31,0.00,,,0.00,meteohub,2013-01-20 13:16:00,
2013-01-20 08:21:00,41.0,12.7,31.02,SW,217,2.0,4.0,31,0.00,,,0.00,meteohub,2013-01-20 13:21:00,
2013-01-20 08:26:00,41.2,12.7,31.02,WSW,238,3.0,4.0,31,0.00,,,0.00,meteohub,2013-01-20 13:26:00,
2013-01-20 08:31:00,41.4,12.9,31.02,SW,214,3.0,5.0,31,0.00,,,0.00,meteohub,2013-01-20 13:31:00,
2013-01-20 08:36:00,41.5,13.1,31.02,WNW,282,2.0,5.0,31,0.00,,,0.00,meteohub,2013-01-20 13:36:00,
2013-01-20 08:41:00,41.7,13.3,31.02,SW,231,5.0,5.0,31,0.00,,,0.00,meteohub,2013-01-20 13:41:00,
2013-01-20 08:46:00,42.1,13.6,31.02,WSW,252,3.0,5.0,31,0.00,,,0.00,meteohub,2013-01-20 13:46:00,
2013-01-20 08:51:00,42.3,13.1,31.02,West,268,2.0,5.0,30,0.00,,,0.00,meteohub,2013-01-20 13:51:00,
2013-01-20 08:56:00,42.8,13.5,31.02,SSW,212,3.0,5.0,30,0.00,,,0.00,meteohub,2013-01-20 13:56:00,
2013-01-20 09:01:00,43.2,13.8,31.02,South,186,3.0,5.0,30,0.00,,,0.00,meteohub,2013-01-20 14:01:00,
2013-01-20 09:07:00,43.5,13.3,31.02,South,189,0.0,5.0,29,0.00,,,0.00,meteohub,2013-01-20 14:07:00,
2013-01-20 09:12:00,43.9,13.6,31.02,WNW,299,3.0,5.0,29,0.00,,,0.00,meteohub,2013-01-20 14:12:00,
2013-01-20 09:17:00,44.1,13.8,31.02,West,270,2.0,5.0,29,0.00,,,0.00,meteohub,2013-01-20 14:17:00,
2013-01-20 09:22:00,44.2,14.0,31.02,NW,320,2.0,5.0,29,0.00,,,0.00,meteohub,2013-01-20 14:22:00,
2013-01-20 09:27:00,44.2,14.0,31.02,SSW,193,4.0,5.0,29,0.00,,,0.00,meteohub,2013-01-20 14:27:00,
2013-01-20 09:32:00,44.4,13.3,31.02,ENE,73,0.0,5.0,28,0.00,,,0.00,meteohub,2013-01-20 14:32:00,
2013-01-20 09:37:00,44.8,13.6,31.02,WNW,302,0.0,4.0,28,0.00,,,0.00,meteohub,2013-01-20 14:37:00,
2013-01-20 09:42:00,45.5,14.4,31.02,WNW,289,3.0,4.0,28,0.00,,,0.00,meteohub,2013-01-20 14:42:00,
2013-01-20 09:47:00,46.2,14.0,31.02,WSW,242,4.0,6.0,27,0.00,,,0.00,meteohub,2013-01-20 14:47:00,
2013-01-20 09:52:00,47.3,15.1,31.02,WSW,243,3.0,6.0,27,0.00,,,0.00,meteohub,2013-01-20 14:52:00,
2013-01-20 09:58:00,47.8,15.4,31.02,SSW,211,4.0,8.0,27,0.00,,,0.00,meteohub,2013-01-20 14:58:00,
2013-01-20 10:03:00,48.4,13.3,31.02,NNE,15,3.0,8.0,24,0.00,,,0.00,meteohub,2013-01-20 15:03:00,
2013-01-20 10:08:00,49.3,14.0,31.02,NNW,327,2.0,6.0,24,0.00,,,0.00,meteohub,2013-01-20 15:08:00,
2013-01-20 10:13:00,50.2,14.7,31.02,WSW,252,0.0,6.0,24,0.00,,,0.00,meteohub,2013-01-20 15:13:00,
2013-01-20 10:18:00,50.5,15.1,31.02,WSW,243,4.0,6.0,24,0.00,,,0.00,meteohub,2013-01-20 15:18:00,
2013-01-20 10:23:00,51.1,12.6,31.02,NNW,339,3.0,6.0,21,0.00,,,0.00,meteohub,2013-01-20 15:23:00,
2013-01-20 10:28:00,51.6,12.9,31.02,SSE,168,3.0,6.0,21,0.00,,,0.00,meteohub,2013-01-20 15:28:00,
2013-01-20 10:33:00,52.7,13.8,31.02,NNE,19,3.0,6.0,21,0.00,,,0.00,meteohub,2013-01-20 15:33:00,
2013-01-20 10:39:00,54.0,11.5,31.02,WSW,249,3.0,6.0,18,0.00,,,0.00,meteohub,2013-01-20 15:39:00,
2013-01-20 10:44:00,54.7,14.4,31.02,West,266,5.0,5.0,20,0.00,,,0.00,meteohub,2013-01-20 15:44:00,
2013-01-20 10:49:00,55.4,11.3,31.02,NW,305,4.0,4.0,17,0.00,,,0.00,meteohub,2013-01-20 15:49:00,
2013-01-20 10:54:00,55.4,11.3,31.02,West,261,3.0,5.0,17,0.00,,,0.00,meteohub,2013-01-20 15:54:00,
2013-01-20 10:59:00,55.9,11.7,31.02,NNE,21,3.0,5.0,17,0.00,,,0.00,meteohub,2013-01-20 15:59:00,
2013-01-20 11:04:00,56.3,12.0,31.02,WSW,244,2.0,6.0,17,0.00,,,0.00,meteohub,2013-01-20 16:04:00,
2013-01-20 11:09:00,56.5,9.3,31.02,NW,315,5.0,6.0,15,0.00,,,0.00,meteohub,2013-01-20 16:09:00,
2013-01-20 11:14:00,56.7,12.4,31.02,North,353,3.0,6.0,17,0.00,,,0.00,meteohub,2013-01-20 16:14:00,
2013-01-20 11:19:00,57.6,13.1,31.02,SSE,168,2.0,6.0,17,0.00,,,0.00,meteohub,2013-01-20 16:19:00,
2013-01-20 11:24:00,58.3,13.6,31.02,WSW,238,3.0,6.0,17,0.00,,,0.00,meteohub,2013-01-20 16:24:00,
2013-01-20 11:29:00,58.5,9.5,31.02,South,190,3.0,6.0,14,0.00,,,0.00,meteohub,2013-01-20 16:29:00,
2013-01-20 11:35:00,58.5,9.5,31.02,NW,318,4.0,6.0,14,0.00,,,0.00,meteohub,2013-01-20 16:35:00,
2013-01-20 11:40:00,58.8,9.7,31.02,West,276,4.0,6.0,14,0.00,,,0.00,meteohub,2013-01-20 16:40:00,
2013-01-20 11:45:00,58.8,9.7,31.02,WSW,257,2.0,6.0,14,0.00,,,0.00,meteohub,2013-01-20 16:45:00,
2013-01-20 11:50:00,59.0,9.9,31.02,SSW,207,6.0,6.0,14,0.00,,,0.00,meteohub,2013-01-20 16:50:00,
2013-01-20 11:55:00,59.2,10.0,31.02,South,170,2.0,6.0,14,0.00,,,0.00,meteohub,2013-01-20 16:55:00,
2013-01-20 12:00:00,59.7,10.4,31.02,South,185,3.0,6.0,14,0.00,,,0.00,meteohub,2013-01-20 17:00:00,
2013-01-20 12:05:00,60.4,10.9,31.02,WSW,241,5.0,6.0,14,0.00,,,0.00,meteohub,2013-01-20 17:05:00,
2013-01-20 12:10:00,61.0,11.5,31.02,SW,217,3.0,6.0,14,0.00,,,0.00,meteohub,2013-01-20 17:10:00,
2013-01-20 12:15:00,61.2,11.5,31.02,SW,214,3.0,6.0,14,0.00,,,0.00,meteohub,2013-01-20 17:15:00,
2013-01-20 12:20:00,61.5,11.8,31.02,West,267,2.0,6.0,14,0.00,,,0.00,meteohub,2013-01-20 17:20:00,
2013-01-20 12:26:00,61.7,12.0,31.02,SSW,208,2.0,6.0,14,0.00,,,0.00,meteohub,2013-01-20 17:26:00,
2013-01-20 12:31:00,61.9,12.2,31.02,NNE,14,0.0,6.0,14,0.00,,,0.00,meteohub,2013-01-20 17:31:00,
2013-01-20 12:36:00,62.8,11.1,31.02,NNW,341,5.0,6.0,13,0.00,,,0.00,meteohub,2013-01-20 17:36:00,
2013-01-20 12:41:00,63.7,11.8,31.02,NW,321,4.0,6.0,13,0.00,,,0.00,meteohub,2013-01-20 17:41:00,
2013-01-20 12:46:00,64.2,12.4,31.02,NNW,342,3.0,7.0,13,0.00,,,0.00,meteohub,2013-01-20 17:46:00,
2013-01-20 12:51:00,64.4,12.4,31.02,WSW,244,3.0,7.0,13,0.00,,,0.00,meteohub,2013-01-20 17:51:00,
2013-01-20 12:56:00,64.4,12.4,31.02,SW,230,4.0,6.0,13,0.00,,,0.00,meteohub,2013-01-20 17:56:00,
2013-01-20 13:01:00,64.2,12.4,31.02,SW,232,5.0,6.0,13,0.00,,,0.00,meteohub,2013-01-20 18:01:00,
2013-01-20 13:07:00,64.4,12.4,31.02,NNW,337,3.0,6.0,13,0.00,,,0.00,meteohub,2013-01-20 18:07:00,
2013-01-20 13:12:00,64.9,12.9,31.02,West,271,3.0,6.0,13,0.00,,,0.00,meteohub,2013-01-20 18:12:00,
2013-01-20 13:17:00,64.9,12.9,31.02,North,0,6.0,6.0,13,0.00,,,0.00,meteohub,2013-01-20 18:17:00,
2013-01-20 13:22:00,65.3,13.1,31.02,ENE,59,6.0,6.0,13,0.00,,,0.00,meteohub,2013-01-20 18:22:00,
2013-01-20 13:27:00,65.8,13.6,31.02,NE,46,2.0,8.0,13,0.00,,,0.00,meteohub,2013-01-20 18:27:00,
2013-01-20 13:32:00,66.0,13.8,31.02,North,0,3.0,8.0,13,0.00,,,0.00,meteohub,2013-01-20 18:32:00,
2013-01-20 13:37:00,65.8,13.6,31.02,NNE,25,5.0,6.0,13,0.00,,,0.00,meteohub,2013-01-20 18:37:00,
2013-01-20 13:42:00,65.5,13.3,31.02,South,191,5.0,6.0,13,0.00,,,0.00,meteohub,2013-01-20 18:42:00,
2013-01-20 13:47:00,65.1,13.1,31.02,NNW,343,3.0,8.0,13,0.00,,,0.00,meteohub,2013-01-20 18:47:00,
2013-01-20 13:52:00,65.5,13.3,31.02,WSW,244,3.0,8.0,13,0.00,,,0.00,meteohub,2013-01-20 18:52:00,
2013-01-20 13:57:00,65.1,13.1,31.02,North,7,4.0,8.0,13,0.00,,,0.00,meteohub,2013-01-20 18:57:00,
2013-01-20 14:02:00,65.5,7.5,31.02,SSE,157,4.0,8.0,10,0.00,,,0.00,meteohub,2013-01-20 19:02:00,
2013-01-20 14:07:00,65.3,7.3,31.02,NNE,27,4.0,8.0,10,0.00,,,0.00,meteohub,2013-01-20 19:07:00,
2013-01-20 14:12:00,65.7,13.5,31.02,South,169,5.0,8.0,13,0.00,,,0.00,meteohub,2013-01-20 19:12:00,
2013-01-20 14:17:00,66.0,7.9,31.02,West,278,2.0,10.0,10,0.00,,,0.00,meteohub,2013-01-20 19:17:00,
2013-01-20 14:23:00,66.0,7.9,31.02,North,357,4.0,10.0,10,0.00,,,0.00,meteohub,2013-01-20 19:23:00,
2013-01-20 14:28:00,66.4,8.1,31.02,NNW,332,0.0,8.0,10,0.00,,,0.00,meteohub,2013-01-20 19:28:00,
2013-01-20 14:33:00,66.6,12.4,31.02,NE,40,3.0,8.0,12,0.00,,,0.00,meteohub,2013-01-20 19:33:00,
2013-01-20 14:38:00,66.4,8.1,31.02,SSW,196,3.0,8.0,10,0.00,,,0.00,meteohub,2013-01-20 19:38:00,
2013-01-20 14:43:00,66.0,7.9,31.02,South,184,4.0,8.0,10,0.00,,,0.00,meteohub,2013-01-20 19:43:00,
2013-01-20 14:48:00,66.0,7.9,31.02,SSW,205,3.0,8.0,10,0.00,,,0.00,meteohub,2013-01-20 19:48:00,
2013-01-20 14:53:00,66.4,8.1,31.02,SSW,206,4.0,6.0,10,0.00,,,0.00,meteohub,2013-01-20 19:53:00,
2013-01-20 14:58:00,66.9,8.6,31.02,North,10,4.0,6.0,10,0.00,,,0.00,meteohub,2013-01-20 19:58:00,
2013-01-20 15:03:00,67.1,8.6,31.02,NW,325,3.0,6.0,10,0.00,,,0.00,meteohub,2013-01-20 20:03:00,
2013-01-20 15:08:00,67.1,8.6,31.02,WSW,257,3.0,7.0,10,0.00,,,0.00,meteohub,2013-01-20 20:08:00,
2013-01-20 15:14:00,67.1,8.6,31.02,NE,35,3.0,8.0,10,0.00,,,0.00,meteohub,2013-01-20 20:14:00,
2013-01-20 15:19:00,67.1,8.6,31.02,NW,308,3.0,8.0,10,0.00,,,0.00,meteohub,2013-01-20 20:19:00,
2013-01-20 15:24:00,66.7,8.4,31.02,North,350,5.0,8.0,10,0.00,,,0.00,meteohub,2013-01-20 20:24:00,
2013-01-20 15:29:00,66.2,8.1,31.02,NNW,327,3.0,8.0,10,0.00,,,0.00,meteohub,2013-01-20 20:29:00,
2013-01-20 15:34:00,66.0,7.9,31.02,NNE,28,4.0,6.0,10,0.00,,,0.00,meteohub,2013-01-20 20:34:00,
2013-01-20 15:39:00,66.2,8.1,31.02,NNW,348,2.0,6.0,10,0.00,,,0.00,meteohub,2013-01-20 20:39:00,
2013-01-20 15:44:00,66.6,8.2,31.02,NW,316,3.0,7.0,10,0.00,,,0.00,meteohub,2013-01-20 20:44:00,
2013-01-20 15:49:00,66.4,8.1,31.02,North,5,3.0,7.0,10,0.00,,,0.00,meteohub,2013-01-20 20:49:00,
2013-01-20 15:54:00,66.2,8.1,31.02,ENE,59,3.0,6.0,10,0.00,,,0.00,meteohub,2013-01-20 20:54:00,
2013-01-20 15:59:00,65.5,7.5,31.02,North,10,6.0,6.0,10,0.00,,,0.00,meteohub,2013-01-20 20:59:00,
2013-01-20 16:04:00,64.9,7.0,31.02,West,259,3.0,8.0,10,0.00,,,0.00,meteohub,2013-01-20 21:04:00,
2013-01-20 16:09:00,64.9,7.0,31.02,SSW,207,4.0,8.0,10,0.00,,,0.00,meteohub,2013-01-20 21:09:00,
2013-01-20 16:15:00,65.1,7.2,31.02,NE,42,0.0,6.0,10,0.00,,,0.00,meteohub,2013-01-20 21:15:00,
2013-01-20 16:20:00,65.3,7.3,31.02,North,3,0.0,6.0,10,0.00,,,0.00,meteohub,2013-01-20 21:20:00,
2013-01-20 16:25:00,65.1,7.2,31.02,North,2,2.0,5.0,10,0.00,,,0.00,meteohub,2013-01-20 21:25:00,
2013-01-20 16:30:00,64.4,6.6,31.02,SE,136,3.0,5.0,10,0.00,,,0.00,meteohub,2013-01-20 21:30:00,
2013-01-20 16:35:00,63.0,7.5,31.02,SW,232,0.0,4.0,11,0.00,,,0.00,meteohub,2013-01-20 21:35:00,
2013-01-20 16:40:00,61.9,6.8,31.02,North,353,0.0,4.0,11,0.00,,,0.00,meteohub,2013-01-20 21:40:00,
2013-01-20 16:45:00,61.2,6.3,31.02,West,260,0.0,5.0,11,0.00,,,0.00,meteohub,2013-01-20 21:45:00,
2013-01-20 16:51:00,60.4,7.5,31.02,North,2,0.0,5.0,12,0.00,,,0.00,meteohub,2013-01-20 21:51:00,
2013-01-20 16:56:00,59.9,7.2,31.02,WSW,249,0.0,4.0,12,0.00,,,0.00,meteohub,2013-01-20 21:56:00,
2013-01-20 17:01:00,59.5,6.8,31.02,WSW,244,3.0,4.0,12,0.00,,,0.00,meteohub,2013-01-20 22:01:00,
2013-01-20 17:06:00,59.2,6.6,31.02,SW,224,0.0,3.0,12,0.00,,,0.00,meteohub,2013-01-20 22:06:00,
2013-01-20 17:11:00,58.8,6.3,31.02,SSW,211,0.0,3.0,12,0.00,,,0.00,meteohub,2013-01-20 22:11:00,
2013-01-20 17:16:00,58.6,6.1,31.02,NNE,13,0.0,5.0,12,0.00,,,0.00,meteohub,2013-01-20 22:16:00,
2013-01-20 17:21:00,58.3,5.9,31.02,North,353,0.0,5.0,12,0.00,,,0.00,meteohub,2013-01-20 22:21:00,
2013-01-20 17:26:00,57.9,5.5,31.02,WSW,245,0.0,5.0,12,0.00,,,0.00,meteohub,2013-01-20 22:26:00,
2013-01-20 17:32:00,57.4,5.2,31.02,WSW,245,0.0,5.0,12,0.00,,,0.00,meteohub,2013-01-20 22:32:00,
2013-01-20 17:37:00,56.8,4.8,31.02,WSW,245,0.0,4.0,12,0.00,,,0.00,meteohub,2013-01-20 22:37:00,
2013-01-20 17:42:00,55.9,4.1,31.02,WSW,245,0.0,4.0,12,0.00,,,0.00,meteohub,2013-01-20 22:42:00,
2013-01-20 17:47:00,54.9,5.0,31.02,WSW,245,0.0,0.0,13,0.00,,,0.00,meteohub,2013-01-20 22:47:00,
2013-01-20 17:52:00,53.6,3.9,31.02,WSW,245,0.0,0.0,13,0.00,,,0.00,meteohub,2013-01-20 22:52:00,
2013-01-20 17:57:00,52.5,3.0,31.02,WSW,245,0.0,0.0,13,0.00,,,0.00,meteohub,2013-01-20 22:57:00,
2013-01-20 18:02:00,51.4,3.7,31.02,WSW,245,0.0,0.0,14,0.00,,,0.00,meteohub,2013-01-20 23:02:00,
2013-01-20 18:07:00,50.2,2.8,31.02,WSW,245,0.0,0.0,14,0.00,,,0.00,meteohub,2013-01-20 23:07:00,
2013-01-20 18:13:00,49.3,2.1,31.02,WSW,245,0.0,0.0,14,0.00,,,0.00,meteohub,2013-01-20 23:13:00,
2013-01-20 18:18:00,48.6,1.6,31.02,WSW,245,0.0,0.0,14,0.00,,,0.00,meteohub,2013-01-20 23:18:00,
2013-01-20 18:23:00,48.0,5.2,31.02,WNW,293,0.0,0.0,17,0.00,,,0.00,meteohub,2013-01-20 23:23:00,
2013-01-20 18:28:00,47.3,4.6,31.02,WNW,293,0.0,0.0,17,0.00,,,0.00,meteohub,2013-01-20 23:28:00,
2013-01-20 18:33:00,46.9,4.5,31.02,WNW,293,0.0,0.0,17,0.00,,,0.00,meteohub,2013-01-20 23:33:00,
2013-01-20 18:38:00,46.4,3.9,31.02,WNW,293,0.0,0.0,17,0.00,,,0.00,meteohub,2013-01-20 23:38:00,
2013-01-20 18:43:00,45.9,3.6,31.02,WNW,293,0.0,0.0,17,0.00,,,0.00,meteohub,2013-01-20 23:43:00,
2013-01-20 18:48:00,45.3,3.0,31.02,WNW,293,0.0,0.0,17,0.00,,,0.00,meteohub,2013-01-20 23:48:00,
2013-01-20 18:53:00,44.8,6.1,31.02,WNW,293,0.0,0.0,20,0.00,,,0.00,meteohub,2013-01-20 23:53:00,
2013-01-20 18:58:00,44.2,5.7,31.02,WNW,293,0.0,0.0,20,0.00,,,0.00,meteohub,2013-01-20 23:58:00,
2013-01-20 19:04:00,43.9,5.4,31.02,WNW,293,0.0,0.0,20,0.00,,,0.00,meteohub,2013-01-21 00:04:00,
2013-01-20 19:09:00,43.7,10.2,31.02,SW,232,0.0,0.0,25,0.00,,,0.00,meteohub,2013-01-21 00:09:00,
2013-01-20 19:14:00,43.9,10.4,31.02,NNE,22,0.0,0.0,25,0.00,,,0.00,meteohub,2013-01-21 00:14:00,
2013-01-20 19:19:00,43.7,10.2,31.02,NNE,22,0.0,0.0,25,0.00,,,0.00,meteohub,2013-01-21 00:19:00,
2013-01-20 19:24:00,43.3,9.9,31.02,NNE,22,0.0,0.0,25,0.00,,,0.00,meteohub,2013-01-21 00:24:00,
2013-01-20 19:29:00,43.0,12.0,31.02,NNE,28,0.0,0.0,28,0.00,,,0.00,meteohub,2013-01-21 00:29:00,
2013-01-20 19:34:00,42.8,12.0,31.02,North,11,0.0,4.0,28,0.00,,,0.00,meteohub,2013-01-21 00:34:00,
2013-01-20 19:39:00,43.3,12.4,31.02,North,7,4.0,4.0,28,0.00,,,0.00,meteohub,2013-01-21 00:39:00,
2013-01-20 19:44:00,45.0,13.8,31.02,NE,49,3.0,5.0,28,0.00,,,0.00,meteohub,2013-01-21 00:44:00,
2013-01-20 19:49:00,46.6,14.4,31.02,NNE,28,0.0,5.0,27,0.00,,,0.00,meteohub,2013-01-21 00:49:00,
2013-01-20 19:54:00,47.3,12.4,31.02,North,357,0.0,5.0,24,0.00,,,0.00,meteohub,2013-01-21 00:54:00,
2013-01-20 19:59:00,47.5,12.6,31.02,NNE,33,0.0,5.0,24,0.00,,,0.00,meteohub,2013-01-21 00:59:00,
2013-01-20 20:04:00,47.5,10.6,31.02,North,357,0.0,4.0,22,0.00,,,0.00,meteohub,2013-01-21 01:04:00,
2013-01-20 20:09:00,47.5,10.6,31.02,North,0,3.0,4.0,22,0.00,,,0.00,meteohub,2013-01-21 01:09:00,
2013-01-20 20:14:00,47.5,10.6,31.02,North,2,0.0,4.0,22,0.00,,,0.00,meteohub,2013-01-21 01:14:00,
2013-01-20 20:20:00,47.3,10.4,31.02,North,357,0.0,4.0,22,0.00,,,0.00,meteohub,2013-01-21 01:20:00,
2013-01-20 20:25:00,47.1,10.2,31.02,North,357,0.0,4.0,22,0.00,,,0.00,meteohub,2013-01-21 01:25:00,
2013-01-20 20:30:00,46.8,9.9,31.02,North,357,0.0,4.0,22,0.00,,,0.00,meteohub,2013-01-21 01:30:00,
2013-01-20 20:35:00,46.0,9.3,31.02,North,357,0.0,3.0,22,0.00,,,0.00,meteohub,2013-01-21 01:35:00,
2013-01-20 20:40:00,45.1,8.6,31.02,North,357,0.0,3.0,22,0.00,,,0.00,meteohub,2013-01-21 01:40:00,
2013-01-20 20:45:00,44.2,8.8,31.02,North,357,0.0,0.0,23,0.00,,,0.00,meteohub,2013-01-21 01:45:00,
2013-01-20 20:50:00,43.3,8.1,31.02,North,357,0.0,0.0,23,0.00,,,0.00,meteohub,2013-01-21 01:50:00,
2013-01-20 20:55:00,42.6,10.0,31.02,North,357,0.0,0.0,26,0.00,,,0.00,meteohub,2013-01-21 01:55:00,
2013-01-20 21:00:00,42.1,9.7,31.02,North,357,0.0,0.0,26,0.00,,,0.00,meteohub,2013-01-21 02:00:00,
2013-01-20 21:05:00,41.5,9.1,31.02,North,357,0.0,0.0,26,0.00,,,0.00,meteohub,2013-01-21 02:05:00,
2013-01-20 21:11:00,41.0,8.8,31.02,North,357,0.0,0.0,26,0.00,,,0.00,meteohub,2013-01-21 02:11:00,
2013-01-20 21:16:00,40.5,8.2,31.02,North,357,0.0,0.0,26,0.00,,,0.00,meteohub,2013-01-21 02:16:00,
2013-01-20 21:21:00,39.7,9.3,31.02,North,357,0.0,0.0,28,0.00,,,0.00,meteohub,2013-01-21 02:21:00,
2013-01-20 21:26:00,39.2,8.8,31.02,North,357,0.0,0.0,28,0.00,,,0.00,meteohub,2013-01-21 02:26:00,
2013-01-20 21:31:00,38.8,9.3,31.02,North,357,0.0,0.0,29,0.00,,,0.00,meteohub,2013-01-21 02:31:00,
2013-01-20 21:36:00,38.5,9.0,31.02,North,357,0.0,0.0,29,0.00,,,0.00,meteohub,2013-01-21 02:36:00,
2013-01-20 21:41:00,37.9,8.4,31.02,North,357,0.0,0.0,29,0.00,,,0.00,meteohub,2013-01-21 02:41:00,
2013-01-20 21:46:00,37.6,9.0,31.02,North,357,0.0,0.0,30,0.00,,,0.00,meteohub,2013-01-21 02:46:00,
2013-01-20 21:51:00,37.4,8.8,31.02,North,357,0.0,0.0,30,0.00,,,0.00,meteohub,2013-01-21 02:51:00,
2013-01-20 21:56:00,37.0,9.1,31.02,North,357,0.0,0.0,31,0.00,,,0.00,meteohub,2013-01-21 02:56:00,
2013-01-20 22:02:00,36.9,9.0,31.02,North,357,0.0,0.0,31,0.00,,,0.00,meteohub,2013-01-21 03:02:00,
2013-01-20 22:07:00,36.9,9.0,31.02,North,357,0.0,0.0,31,0.00,,,0.00,meteohub,2013-01-21 03:07:00,
2013-01-20 22:12:00,36.7,9.5,31.02,North,357,0.0,0.0,32,0.00,,,0.00,meteohub,2013-01-21 03:12:00,
2013-01-20 22:17:00,36.5,9.5,31.02,North,357,0.0,0.0,32,0.00,,,0.00,meteohub,2013-01-21 03:17:00,
2013-01-20 22:22:00,36.3,9.3,31.02,North,357,0.0,0.0,32,0.00,,,0.00,meteohub,2013-01-21 03:22:00,
2013-01-20 22:27:00,36.1,9.1,31.02,North,357,0.0,0.0,32,0.00,,,0.00,meteohub,2013-01-21 03:27:00,
2013-01-20 22:32:00,36.0,9.7,31.02,North,357,0.0,0.0,33,0.00,,,0.00,meteohub,2013-01-21 03:32:00,
2013-01-20 22:37:00,36.1,10.4,31.02,NNE,15,0.0,0.0,34,0.00,,,0.00,meteohub,2013-01-21 03:37:00,
2013-01-20 22:42:00,36.7,10.9,31.02,NNE,29,0.0,0.0,34,0.00,,,0.00,meteohub,2013-01-21 03:42:00,
2013-01-20 22:48:00,37.0,11.3,31.02,NNE,29,0.0,0.0,34,0.00,,,0.00,meteohub,2013-01-21 03:48:00,
2013-01-20 22:53:00,37.2,10.8,31.02,NNE,29,0.0,0.0,33,0.00,,,0.00,meteohub,2013-01-21 03:53:00,
2013-01-20 22:58:00,37.2,10.8,31.02,NE,45,0.0,0.0,33,0.00,,,0.00,meteohub,2013-01-21 03:58:00,
2013-01-20 23:03:00,37.2,10.8,31.02,NE,43,0.0,0.0,33,0.00,,,0.00,meteohub,2013-01-21 04:03:00,
2013-01-20 23:08:00,37.2,10.8,31.02,NE,43,0.0,0.0,33,0.00,,,0.00,meteohub,2013-01-21 04:08:00,
2013-01-20 23:13:00,37.4,10.9,31.02,NE,43,0.0,0.0,33,0.00,,,0.00,meteohub,2013-01-21 04:13:00,
2013-01-20 23:18:00,37.4,10.9,31.02,NE,43,0.0,0.0,33,0.00,,,0.00,meteohub,2013-01-21 04:18:00,
2013-01-20 23:23:00,37.4,10.9,31.02,NE,43,0.0,0.0,33,0.00,,,0.00,meteohub,2013-01-21 04:23:00,
2013-01-20 23:28:00,37.2,10.8,31.02,NE,43,0.0,0.0,33,0.00,,,0.00,meteohub,2013-01-21 04:28:00,
2013-01-20 23:33:00,37.0,10.6,31.02,NE,43,0.0,0.0,33,0.00,,,0.00,meteohub,2013-01-21 04:33:00,
2013-01-20 23:38:00,36.7,10.2,31.02,NE,43,0.0,0.0,33,0.00,,,0.00,meteohub,2013-01-21 04:38:00,
2013-01-20 23:43:00,36.3,10.0,31.02,NE,43,0.0,0.0,33,0.00,,,0.00,meteohub,2013-01-21 04:43:00,
2013-01-20 23:49:00,36.0,9.7,31.02,NE,43,0.0,0.0,33,0.00,,,0.00,meteohub,2013-01-21 04:49:00,
2013-01-20 23:54:00,35.8,10.2,31.02,NE,43,0.0,0.0,34,0.00,,,0.00,meteohub,2013-01-21 04:54:00,
2013-01-20 23:59:00,35.6,10.0,31.02,NE,43,0.0,0.0,34,0.00,,,0.00,meteohub,2013-01-21 04:59:00,